FW8434 Weather Reports


time (UTC)temp
C
wind
direction
speed
KPH
gust
KPH
rain 1hr
cm
rain 24hr
cm
rain mn
cm
humidity
%
barometer
mb
20260507144531 10 224 0.0 3.2 0.00 0.00 0.00 84 1019.2
20260507143033 9 298 0.0 3.2 0.00 0.00 0.00 84 1019.1
20260507141527 9 0 0.0 3.2 0.00 0.00 0.00 85 1019.0
20260507140029 9 0 0.0 1.6 0.00 0.00 0.00 84 1018.9
20260507134531 9 259 0.0 1.6 0.00 0.00 0.00 84 1018.9
20260507133030 9 0 0.0 1.6 0.00 0.00 0.00 85 1018.8
20260507131536 9 0 0.0 1.6 0.00 0.00 0.00 86 1018.7
20260507130028 9 262 0.0 0.0 0.00 0.00 0.00 85 1018.9
20260507124532 9 0 0.0 1.6 0.00 0.00 0.00 84 1018.8
20260507123029 9 220 0.0 3.2 0.00 0.00 0.00 84 1018.9
20260507121530 10 303 1.6 6.4 0.00 0.00 0.00 83 1019.0
20260507120027 10 0 0.0 6.4 0.00 0.00 0.00 83 1019.1
20260507114529 10 0 0.0 6.4 0.00 0.00 0.00 83 1019.1
20260507113029 10 0 0.0 6.4 0.00 0.00 0.00 84 1019.2
20260507111528 10 285 0.0 1.6 0.00 0.00 0.00 84 1019.1
20260507110029 10 0 0.0 3.2 0.00 0.00 0.00 85 1019.2
20260507104534 10 293 0.0 4.8 0.00 0.00 0.00 85 1019.2
20260507103028 10 250 1.6 4.8 0.00 0.00 0.00 86 1019.2
20260507101549 10 0 0.0 1.6 0.00 0.00 0.00 86 1019.4
20260507100034 10 0 0.0 3.2 0.00 0.00 0.00 86 1019.5
20260507094529 11 290 0.0 3.2 0.00 0.00 0.00 85 1019.5
20260507093032 11 258 0.0 4.8 0.00 0.00 0.00 85 1019.6
20260507091548 11 253 0.0 3.2 0.00 0.00 0.00 84 1019.7
20260507090027 11 283 0.0 1.6 0.00 0.00 0.00 85 1019.8
20260507084530 11 300 0.0 3.2 0.00 0.00 0.00 85 1019.8
20260507083028 11 0 0.0 4.8 0.00 0.00 0.00 85 1019.9
20260507081540 11 323 0.0 3.2 0.00 0.00 0.00 85 1019.9
20260507080030 11 292 0.0 6.4 0.00 0.00 0.00 85 1019.9
20260507074531 11 307 0.0 3.2 0.00 0.00 0.00 85 1019.8
20260507073030 11 0 0.0 1.6 0.00 0.00 0.00 85 1019.7
20260507071528 11 274 0.0 3.2 0.00 0.00 0.00 84 1019.7
20260507070028 11 0 0.0 1.6 0.00 0.00 0.00 84 1019.6
20260507064529 11 0 0.0 3.2 0.00 0.00 0.00 85 1019.7
20260507063030 11 0 0.0 3.2 0.00 0.00 0.00 84 1019.7
20260507061532 11 274 1.6 6.4 0.00 0.00 0.00 84 1019.6
20260507060032 12 232 0.0 3.2 0.00 0.00 0.00 84 1019.7
20260507054527 12 308 0.0 6.4 0.00 0.00 0.00 83 1019.6
20260507053028 12 272 0.0 4.8 0.00 0.00 0.00 84 1019.6
20260507051528 12 0 0.0 1.6 0.00 0.00 0.00 83 1019.6
20260507050034 12 283 0.0 8.0 0.00 0.00 0.00 83 1019.7
20260507044541 12 265 3.2 9.7 0.00 0.00 0.00 82 1019.6
20260507043034 13 302 1.6 11.3 0.00 0.00 0.00 82 1019.6
20260507041530 13 280 0.0 14.5 0.00 0.00 0.00 82 1019.3
20260507040030 13 0 0.0 4.8 0.00 0.00 0.00 83 1019.1
20260507034532 13 350 1.6 4.8 0.00 0.00 0.00 84 1018.9
20260507033028 13 0 0.0 4.8 0.00 0.00 0.00 84 1018.7
20260507031530 14 0 0.0 4.8 0.00 0.00 0.00 83 1018.5
20260507030029 14 0 0.0 4.8 0.00 0.00 0.00 82 1018.4
20260507024530 15 0 1.6 4.8 0.00 0.00 0.00 80 1018.3
20260507023029 16 0 0.0 6.4 0.00 0.00 0.00 78 1018.3
20260507021530 16 271 1.6 6.4 0.00 0.00 0.00 77 1018.3
20260507020033 16 321 0.0 8.0 0.00 0.00 0.00 76 1018.4
20260507014528 17 311 3.2 6.4 0.00 0.00 0.00 77 1018.5
20260507013028 17 290 1.6 6.4 0.00 0.00 0.00 76 1018.3
20260507011531 18 0 0.0 1.6 0.00 0.00 0.00 76 1018.3
20260507010029 18 274 0.0 3.2 0.00 0.00 0.00 74 1018.4
20260507004527 18 0 0.0 1.6 0.00 0.00 0.00 76 1018.3
20260507003028 18 287 0.0 4.8 0.00 0.00 0.00 72 1018.4
20260507001531 18 301 0.0 4.8 0.00 0.00 0.00 75 1018.2
20260507000029 19 0 0.0 4.8 0.00 0.00 0.00 73 1018.3
20260506234530 20 274 1.6 6.4 0.00 0.00 0.00 69 1018.2
20260506233030 20 0 0.0 6.4 0.00 0.00 0.00 69 1018.3
20260506231529 18 0 0.0 8.0 0.00 0.00 0.00 75 1018.4
20260506230027 19 0 0.0 4.8 0.00 0.00 0.00 69 1018.5
20260506224530 18 0 0.0 4.8 0.00 0.00 0.00 73 1018.6
20260506223031 19 139 0.0 1.6 0.00 0.00 0.00 71 1018.8
20260506221531 19 223 0.0 3.2 0.00 0.00 0.00 74 1018.9
20260506220035 18 303 1.6 6.4 0.00 0.00 0.00 74 1018.9
20260506214530 18 148 0.0 4.8 0.00 0.00 0.00 77 1019.0
20260506213028 17 0 0.0 4.8 0.00 0.00 0.00 79 1019.2
20260506211527 17 307 1.6 6.4 0.00 0.00 0.00 77 1019.4
20260506210029 17 260 1.6 4.8 0.00 0.00 0.00 79 1019.4
20260506204528 17 221 0.0 3.2 0.00 0.00 0.00 79 1019.4
20260506203030 17 115 0.0 4.8 0.00 0.00 0.00 76 1019.3
20260506201541 17 0 0.0 6.4 0.00 0.00 0.00 80 1019.4
20260506200028 16 245 0.0 4.8 0.00 0.00 0.00 81 1019.4
20260506194534 15 283 0.0 3.2 0.00 0.00 0.00 83 1019.6
20260506193030 15 0 0.0 3.2 0.00 0.00 0.00 82 1019.7
20260506191528 16 203 0.0 1.6 0.00 0.00 0.00 82 1019.6
20260506190029 15 146 0.0 3.2 0.00 0.00 0.00 84 1019.6
20260506184531 15 148 0.0 1.6 0.00 0.00 0.00 83 1019.6
20260506183028 15 253 1.6 4.8 0.00 0.00 0.00 83 1019.6
20260506181530 15 261 0.0 3.2 0.00 0.00 0.00 84 1019.5
20260506180028 15 359 0.0 3.2 0.00 0.00 0.00 84 1019.4
20260506174529 15 0 0.0 3.2 0.00 0.00 0.00 83 1019.3
20260506173029 15 0 0.0 1.6 0.00 0.00 0.00 86 1019.2
20260506171539 14 0 0.0 3.2 0.00 0.00 0.00 86 1019.1
20260506170030 13 0 1.6 4.8 0.00 0.00 0.00 86 1019.1
20260506164527 14 222 0.0 4.8 0.00 0.00 0.00 86 1019.0
20260506163038 14 288 0.0 4.8 0.00 0.00 0.00 86 1018.9
20260506161533 15 0 0.0 3.2 0.00 0.00 0.00 84 1018.8
20260506160030 13 0 0.0 1.6 0.00 0.00 0.00 90 1018.6
20260506154537 12 0 0.0 3.2 0.00 0.00 0.00 91 1018.9
20260506153029 12 0 0.0 4.8 0.00 0.00 0.00 91 1019.3
20260506151527 12 0 0.0 3.2 0.00 0.00 0.00 92 1019.2
20260506150031 12 251 0.0 4.8 0.00 0.00 0.00 91 1018.9